Location: Twillingate Astronomical Observatory
(49.6173°N, 54.7580°W)
Time: 11:31:57
(UTC-03:-30)

Amateur Radio Satellites - All Passes

Search period start: 19 January 2017 11:01
Search period end: 20 January 2017 11:01
Location: Twillingate Astronomical Observatory, 49.6173°N, 54.7580°W

Satellite Date Start Highest point End Downlink Frequencies (MHz)
Time Altitude Azimuth
DELFI C3 19 Jan 11:03:44 11:07:03 25° 295° (WNW) 11:10:21 145.870
ESTCUBE 1 19 Jan 11:10:19 11:14:28 34° 96° (E) 11:18:35 437.505/2401.250
JAS-2 19 Jan 11:15:02 11:19:52 34° 267° (W) 11:25:10 435.910
HO-68 19 Jan 11:23:03 11:25:00 11° 325° (NW) 11:26:58 435.675
Oscar 19 19 Jan 11:25:19 11:29:33 26° 60° (ENE) 11:33:46 437.125/150
PCSat 19 Jan 11:27:32 11:31:07 18° 254° (WSW) 11:34:42 145.827
VELOX 1 19 Jan 11:28:15 11:31:32 20° 92° (E) 11:34:48 145.980
Cosmos 2491 19 Jan 11:29:12 11:36:08 25° 56° (ENE) 11:43:01 435.465 / 435.565
Gurwin Techsat 1B 19 Jan 11:29:22 11:32:46 18° 54° (NE) 11:36:11 435.225
BUGSAT 1 19 Jan 11:37:33 11:41:37 85° 75° (ENE) 11:45:41 437.445
SO-50 19 Jan 11:39:53 11:42:39 15° 343° (NNW) 11:45:24 436.795
AO-7 19 Jan 11:54:11 11:59:15 18° 36° (NE) 12:04:19 29.400- 29.500
QB50P1 19 Jan 11:54:28 11:57:52 24° 267° (W) 12:01:17 145.935-145.965
POLYITAN 1 19 Jan 11:58:22 12:01:37 22° 267° (W) 12:04:53 437.675
QB50P2 19 Jan 11:59:44 12:02:52 20° 268° (W) 12:05:59 145.880/145.840
RS-15 19 Jan 12:03:10 12:06:36 12° 272° (W) 12:10:01 29.354- 29.394
50 SAT 19 Jan 12:03:14 12:06:27 31° 97° (E) 12:09:38 437.505
DX 1 19 Jan 12:04:50 12:08:18 23° 93° (E) 12:11:45 434.975-435.025
SPROUT 19 Jan 12:06:50 12:10:47 35° 97° (E) 12:14:42 437.525
UKube-1 19 Jan 12:07:01 12:10:02 18° 91° (E) 12:13:01 .
BY70-1 19 Jan 12:08:47 12:11:36 24° 294° (WNW) 12:14:19 436.1900
CUSAT 1 19 Jan 12:08:49 12:14:21 20° 52° (NE) 12:19:53 437.405
CUBEBUG 1 19 Jan 12:17:37 12:21:59 88° 291° (WNW) 12:26:19 437.445
HUMSAT D 19 Jan 12:18:59 12:20:09 11° 305° (NW) 12:21:19 437.325/437.525
POPSAT HIP 1 19 Jan 12:22:51 12:24:57 13° 272° (W) 12:27:04 437.405
AISAT 19 Jan 12:30:23 12:34:49 82° 104° (ESE) 12:39:12 437.250
DUCHIFAT 1 19 Jan 12:36:12 12:37:34 11° 273° (W) 12:38:57 145.980
DANDE 19 Jan 12:45:34 12:49:27 15° 51° (NE) 12:53:37 436.750
ESTCUBE 1 19 Jan 12:47:12 12:51:15 32° 295° (WNW) 12:55:15 437.505/2401.250
Oscar 19 19 Jan 13:03:25 13:08:32 56° 259° (W) 13:13:41 437.125/150
VELOX 1 19 Jan 13:04:00 13:08:17 51° 290° (WNW) 13:12:32 145.980
Gurwin Techsat 1B 19 Jan 13:06:42 13:12:01 89° 84° (E) 13:17:23 435.225
BUGSAT 1 19 Jan 13:16:41 13:17:34 11° 273° (W) 13:18:27 437.445
SO-50 19 Jan 13:22:47 13:24:59 13° 8° (N) 13:27:11 436.795
Cosmos 2491 19 Jan 13:25:31 13:34:21 88° 81° (E) 13:43:11 435.465 / 435.565
50 SAT 19 Jan 13:36:41 13:39:32 23° 295° (WNW) 13:42:22 437.505
YUBILEINY 19 Jan 13:37:48 13:45:50 42° 85° (E) 13:53:54 435.215
TISAT 1 19 Jan 13:39:22 13:43:27 50° 100° (E) 13:47:30 437.305
DX 1 19 Jan 13:40:33 13:44:41 43° 292° (WNW) 13:48:48 434.975-435.025
UKube-1 19 Jan 13:42:10 13:46:24 55° 290° (WNW) 13:50:36 .
AO-7 19 Jan 13:42:13 13:50:14 53° 59° (ENE) 13:58:16 29.400- 29.500
SPROUT 19 Jan 13:42:59 13:46:36 27° 295° (WNW) 13:50:12 437.525
BEESAT 19 Jan 13:43:17 13:45:49 14° 88° (E) 13:48:21 436.000
ITAMSAT 1 19 Jan 13:43:32 13:48:27 47° 67° (ENE) 13:53:25 435.822/435.867
SWISSCUBE 19 Jan 13:44:27 13:47:26 16° 89° (E) 13:50:24 437.505
Cosmos 2504 19 Jan 13:46:50 13:53:35 27° 80° (E) 14:00:01 435.465 / 435.565
CUSAT 1 19 Jan 13:49:51 13:57:47 68° 74° (ENE) 14:05:28 437.405
CUBEBUG 1 19 Jan 13:55:37 13:57:36 13° 304° (NW) 13:59:36 437.445
AO-85 19 Jan 13:59:35 14:03:41 31° 119° (ESE) 14:07:33 145.980
AISAT 19 Jan 14:08:14 14:10:41 15° 303° (WNW) 14:13:07 437.250
AIST 1 19 Jan 14:13:16 14:17:38 78° 98° (E) 14:22:00
O/OREOS (USA 219) 19 Jan 14:18:05 14:20:33 14° 40° (NE) 14:23:02 437.305
DANDE 19 Jan 14:26:33 14:33:44 52° 71° (ENE) 14:41:50 436.750
ITUPSAT 1 19 Jan 14:43:58 14:48:38 47° 99° (E) 14:53:16 437.325
Gurwin Techsat 1B 19 Jan 14:49:46 14:52:44 15° 273° (W) 14:55:42 435.225
HORYU 2 19 Jan 14:54:06 14:54:42 10° 52° (NE) 14:55:19 437.375
SO-50 19 Jan 15:03:04 15:06:58 27° 32° (NNE) 15:10:49 436.795
BRITE-PL 19 Jan 15:14:42 15:19:46 35° 64° (ENE) 15:24:46 437.365/2234.400
TISAT 1 19 Jan 15:15:43 15:18:46 20° 299° (WNW) 15:21:50 437.305
BEESAT 19 Jan 15:19:25 15:24:14 83° 287° (WNW) 15:29:02 436.000
SWISSCUBE 19 Jan 15:20:57 15:25:46 74° 287° (WNW) 15:30:32 437.505
Cosmos 2491 19 Jan 15:23:35 15:30:04 24° 283° (WNW) 15:36:35 435.465 / 435.565
ITAMSAT 1 19 Jan 15:23:43 15:28:08 28° 266° (W) 15:32:36 435.822/435.867
MOZHAYETS 4 19 Jan 15:25:43 15:30:09 42° 98° (E) 15:34:33
GOMX 1 19 Jan 15:26:25 15:30:13 20° 60° (ENE) 15:33:54 467.674
Cubesat XI-IV 19 Jan 15:31:09 15:33:16 12° 50° (NE) 15:35:24 437.490
CUSAT 1 19 Jan 15:32:23 15:39:15 34° 274° (W) 15:45:55 437.405
YUBILEINY 19 Jan 15:33:49 15:42:25 55° 288° (WNW) 15:51:07 435.215
AO-7 19 Jan 15:35:13 15:43:08 46° 261° (W) 15:51:09 29.400- 29.500
Cosmos 2504 19 Jan 15:37:31 15:46:12 80° 281° (W) 15:54:22 435.465 / 435.565
AO-85 19 Jan 15:39:39 15:44:01 44° 317° (NW) 15:48:06 145.980
NOAA 15 19 Jan 15:43:12 15:46:21 16° 53° (NE) 15:49:30 137.62
AIST 1 19 Jan 15:53:32 15:55:49 14° 297° (WNW) 15:58:07
M-CUBED/EXP-1 PRIME 19 Jan 15:54:14 15:56:53 20° 99° (E) 15:59:26 437.505
O/OREOS (USA 219) 19 Jan 15:56:17 16:00:48 74° 62° (ENE) 16:05:18 437.305
BEESAT 3 19 Jan 15:58:49 16:01:14 16° 113° (ESE) 16:03:40 437.485
CUBESAT XI-V 19 Jan 16:08:45 16:12:19 21° 91° (E) 16:15:51 437.345
DANDE 19 Jan 16:09:27 16:16:27 44° 269° (W) 16:24:11 436.750
DOVE 4 19 Jan 16:11:45 16:15:16 20° 61° (ENE) 16:18:40 437.250
KKS-1 19 Jan 16:14:11 16:18:23 40° 98° (E) 16:22:33 437.445
LilacSat-2 19 Jan 16:14:25 16:16:54 17° 62° (ENE) 16:19:24 437.200
ITUPSAT 1 19 Jan 16:22:15 16:26:15 27° 298° (WNW) 16:30:14 437.325
CUTE-I 19 Jan 16:25:09 16:29:42 30° 62° (ENE) 16:34:17 437.470
HORYU 2 19 Jan 16:26:02 16:30:24 65° 71° (ENE) 16:34:48 437.375
AUBIESAT-1 19 Jan 16:31:28 16:34:46 44° 105° (ESE) 16:37:57 437.475
HO-68 19 Jan 16:33:32 16:38:00 18° 44° (NE) 16:42:27 435.675
BEESAT 2 19 Jan 16:40:33 16:43:22 19° 114° (ESE) 16:46:14 435.950
SO-50 19 Jan 16:43:20 16:47:51 68° 234° (SW) 16:52:17 436.795
BRITE-PL 19 Jan 16:52:37 16:58:05 46° 263° (W) 17:03:30 437.365/2234.400
BEESAT 19 Jan 16:58:46 17:01:18 14° 306° (NW) 17:03:50 436.000
SWISSCUBE 19 Jan 17:00:37 17:02:44 13° 307° (NW) 17:04:52 437.505
GOMX 1 19 Jan 17:02:25 17:07:49 76° 257° (WSW) 17:12:59 467.674
NOAA 18 19 Jan 17:02:35 17:07:35 37° 63° (ENE) 17:12:36 137.9125
MOZHAYETS 4 19 Jan 17:03:13 17:07:09 28° 296° (WNW) 17:11:04
Cubesat XI-IV 19 Jan 17:07:06 17:12:20 61° 70° (ENE) 17:17:36 437.490
STARS 19 Jan 17:10:30 17:14:53 70° 103° (ESE) 17:19:14 437.465
NOAA 15 19 Jan 17:20:02 17:25:20 82° 73° (ENE) 17:30:41 137.62
AO-85 19 Jan 17:23:04 17:25:25 14° 339° (NNW) 17:27:42 145.980
M-CUBED/EXP-1 PRIME 19 Jan 17:28:24 17:31:30 30° 299° (WNW) 17:34:27 437.505
BEESAT 3 19 Jan 17:34:28 17:38:22 68° 311° (NW) 17:42:20 437.485
Cosmos 2504 19 Jan 17:34:46 17:40:56 22° 304° (WNW) 17:46:53 435.465 / 435.565
YUBILEINY 19 Jan 17:36:58 17:41:45 15° 315° (NW) 17:46:34 435.215
O/OREOS (USA 219) 19 Jan 17:37:05 17:39:37 15° 261° (W) 17:42:10 437.305
CUBESAT XI-V 19 Jan 17:45:25 17:50:02 54° 289° (WNW) 17:54:35 437.345
LilacSat-2 19 Jan 17:47:10 17:50:50 50° 260° (W) 17:54:34 437.200
DOVE 4 19 Jan 17:47:38 17:52:35 65° 258° (WSW) 17:57:17 437.250
CINEMA 3 19 Jan 17:47:54 17:51:53 35° 68° (ENE) 17:55:45 145.822/145.860
CUTE 1.7 + AOD 2 19 Jan 17:50:48 17:54:09 23° 63° (ENE) 17:57:32 437.475
KKS-1 19 Jan 17:51:05 17:54:47 26° 297° (WNW) 17:58:28 437.445
CUTE-I 19 Jan 18:04:27 18:09:34 48° 261° (W) 18:14:43 437.470
HORYU 2 19 Jan 18:04:39 18:07:24 16° 270° (W) 18:10:10 437.375
Cosmos 2499 19 Jan 18:04:55 18:09:58 18° 76° (ENE) 18:14:50 435.465 / 435.565
AUBIESAT-1 19 Jan 18:06:41 18:08:55 16° 305° (NW) 18:11:04 437.475
BEESAT 2 19 Jan 18:16:52 18:20:47 59° 314° (NW) 18:24:46 435.950
HO-68 19 Jan 18:17:21 18:24:25 63° 66° (ENE) 18:31:32 435.675
CANX-2 19 Jan 18:18:54 18:22:59 46° 70° (ENE) 18:27:06 2200.000
GONETS M04 19 Jan 18:27:14 18:33:22 22° 75° (ENE) 18:39:32
SEEDS 19 Jan 18:32:23 18:36:19 38° 69° (ENE) 18:40:17 437.485
COMPASS 1 19 Jan 18:40:03 18:43:47 32° 67° (ENE) 18:47:33 437.405
NOAA 18 19 Jan 18:43:04 18:48:14 40° 262° (W) 18:53:24 137.9125
GOMX 1 19 Jan 18:44:34 18:46:39 12° 275° (W) 18:48:42 467.674
Oscar 11 19 Jan 18:45:28 18:47:50 15° 58° (ENE) 18:50:12 145.826/435.025
STARS 19 Jan 18:47:59 18:50:45 17° 302° (WNW) 18:53:30 437.465
Cubesat XI-IV 19 Jan 18:48:43 18:52:50 23° 269° (W) 18:56:58 437.490
CUBEBUG 2 19 Jan 18:49:47 18:53:37 36° 68° (ENE) 18:57:26 437.445
AAUSAT CUBESAT 2 19 Jan 18:52:23 18:56:08 33° 67° (ENE) 18:59:55 437.432
NOAA 15 19 Jan 19:02:27 19:05:47 17° 272° (W) 19:09:09 137.62
STRAND 1 19 Jan 19:04:43 19:09:28 36° 96° (E) 19:14:13 437.568
BEESAT 3 19 Jan 19:14:07 19:16:42 17° 333° (NNW) 19:19:19 437.485
FUNcube-1 19 Jan 19:19:14 19:22:46 28° 65° (ENE) 19:26:20 145.935
UWE-3 19 Jan 19:20:10 19:24:09 48° 71° (ENE) 19:28:10 435.000/436.395/437.385
CINEMA 3 19 Jan 19:25:18 19:29:05 28° 265° (W) 19:32:46 145.822/145.860
CUTE 1.7 + AOD 2 19 Jan 19:25:41 19:29:45 44° 262° (W) 19:33:53 437.475
ZACube-1 19 Jan 19:41:11 19:45:10 49° 71° (ENE) 19:49:12 437.345
Cosmos 2499 19 Jan 19:53:34 20:01:57 78° 96° (E) 20:09:43 435.465 / 435.565
CANX-2 19 Jan 19:55:51 19:59:04 21° 269° (W) 20:02:20 2200.000
BEESAT 2 19 Jan 19:56:55 19:59:24 16° 335° (NNW) 20:01:53 435.950
HUMSAT D 19 Jan 20:02:23 20:05:02 17° 60° (ENE) 20:07:42 437.325/437.525
AIST 2 19 Jan 20:05:32 20:09:32 50° 123° (ESE) 20:13:36 435.215
HO-68 19 Jan 20:06:19 20:12:36 32° 266° (W) 20:18:56 435.675
SEEDS 19 Jan 20:08:38 20:12:08 25° 267° (W) 20:15:39 437.485
COMPASS 1 19 Jan 20:15:38 20:19:19 29° 265° (W) 20:23:04 437.405
DELFI C3 19 Jan 20:18:08 20:21:49 36° 69° (ENE) 20:25:33 145.870
Oscar 11 19 Jan 20:19:03 20:23:23 81° 257° (WSW) 20:27:45 145.826/435.025
GONETS M04 19 Jan 20:20:12 20:28:55 87° 98° (E) 20:37:45
CUBEBUG 2 19 Jan 20:26:57 20:30:22 24° 266° (W) 20:33:48 437.445
AAUSAT CUBESAT 2 19 Jan 20:28:01 20:31:38 28° 266° (W) 20:35:17 437.432
STRAND 1 19 Jan 20:43:58 20:48:40 37° 295° (WNW) 20:53:20 437.568
AO-85 19 Jan 20:46:41 20:49:38 19° 29° (NNE) 20:52:32 145.980
FUNcube-1 19 Jan 20:55:13 20:58:57 32° 264° (W) 21:02:44 145.935
UWE-3 19 Jan 20:57:57 21:00:54 19° 269° (W) 21:03:53 435.000/436.395/437.385
BY70-1 19 Jan 20:58:34 21:00:01 13° 60° (ENE) 21:01:30 436.1900
ZACube-1 19 Jan 21:18:49 21:21:45 19° 269° (W) 21:24:43 437.345
HUMSAT D 19 Jan 21:36:08 21:40:12 62° 259° (W) 21:44:20 437.325/437.525
CUBEBUG 1 19 Jan 21:42:55 21:45:55 18° 60° (ENE) 21:48:56 437.445
AIST 2 19 Jan 21:44:34 21:48:14 29° 324° (NW) 21:51:57 435.215
PRISM 19 Jan 21:48:25 21:52:34 88° 103° (ESE) 21:56:40 437.425
Cosmos 2499 19 Jan 21:49:02 21:55:52 28° 298° (WNW) 22:02:21 435.465 / 435.565
DELFI C3 19 Jan 21:53:28 21:56:44 24° 267° (W) 22:00:01 145.870
UNISAT 6 19 Jan 21:55:27 21:59:33 37° 97° (E) 22:03:42 437.425
AISAT 19 Jan 21:57:01 21:59:59 18° 59° (ENE) 22:02:58 437.250
RS-15 19 Jan 22:05:33 22:13:44 22° 97° (E) 22:22:03 29.354- 29.394
TIGRISAT 19 Jan 22:08:59 22:13:14 46° 99° (E) 22:17:34 435.000
ESTCUBE 1 19 Jan 22:13:39 22:18:03 52° 70° (ENE) 22:22:30 437.505/2401.250
JAS-2 19 Jan 22:17:04 22:23:16 32° 93° (E) 22:29:55 435.910
GONETS M04 19 Jan 22:19:57 22:27:00 26° 302° (WNW) 22:34:08
ANTELSAT 19 Jan 22:23:56 22:28:20 68° 101° (ESE) 22:32:49 437.575/2403.000
AO-85 19 Jan 22:26:37 22:30:36 88° 230° (SW) 22:34:29 145.980
BY70-1 19 Jan 22:26:55 22:29:54 52° 259° (W) 22:33:09 436.1900
VELOX 1 19 Jan 22:29:16 22:33:12 31° 65° (ENE) 22:37:07 145.980
BEESAT 3 19 Jan 22:33:16 22:35:18 13° 21° (NNE) 22:37:20 437.485
ISS 19 Jan 22:34:58 22:37:21 19° 141° (SE) 22:39:45 145.825
50 SAT 19 Jan 22:42:00 22:45:02 26° 67° (ENE) 22:48:05 437.505
NANOSAT C BR1 19 Jan 22:43:39 22:45:18 12° 87° (E) 22:46:56 145.865
SPROUT 19 Jan 23:04:06 23:08:11 47° 70° (ENE) 23:12:17 437.525
DX 1 19 Jan 23:04:07 23:08:05 35° 66° (ENE) 23:12:04 434.975-435.025
UKube-1 19 Jan 23:05:16 23:08:56 28° 64° (ENE) 23:12:37 .
BEESAT 2 19 Jan 23:16:00 23:18:21 15° 23° (NNE) 23:20:41 435.950
CUBEBUG 1 19 Jan 23:17:24 23:21:47 63° 258° (WSW) 23:26:10 437.445
PRISM 19 Jan 23:25:25 23:27:14 13° 304° (NW) 23:29:02 437.425
AIST 2 19 Jan 23:26:25 23:28:02 12° 347° (NNW) 23:29:39 435.215
AISAT 19 Jan 23:31:34 23:36:00 67° 257° (WSW) 23:40:26 437.250
UNISAT 6 19 Jan 23:32:24 23:36:11 29° 295° (WNW) 23:40:00 437.425
QB50P1 19 Jan 23:33:40 23:37:39 39° 98° (E) 23:41:37 145.935-145.965
Cosmos 2504 19 Jan 23:34:27 23:37:01 12° 45° (NE) 23:39:34 435.465 / 435.565
POLYITAN 1 19 Jan 23:37:31 23:41:34 43° 99° (E) 23:45:37 437.675
QB50P2 19 Jan 23:38:42 23:42:49 48° 99° (E) 23:46:55 145.880/145.840
YUBILEINY 19 Jan 23:41:51 23:49:08 27° 58° (ENE) 23:56:20 435.215
TIGRISAT 19 Jan 23:46:13 23:49:43 23° 297° (WNW) 23:53:14 435.000
ESTCUBE 1 19 Jan 23:51:45 23:55:10 21° 269° (W) 23:58:36 437.505/2401.250
POPSAT HIP 1 20 Jan 00:00:23 00:04:36 73° 102° (ESE) 00:08:50 437.405
ANTELSAT 20 Jan 00:01:43 00:04:36 17° 300° (WNW) 00:07:30 437.575/2403.000
JAS-2 20 Jan 00:01:46 00:08:39 66° 290° (WNW) 00:16:12 435.910
VELOX 1 20 Jan 00:05:33 00:09:37 34° 264° (W) 00:13:40 145.980
AO-85 20 Jan 00:09:23 00:10:17 11° 250° (WSW) 00:11:12 145.980
BEESAT 3 20 Jan 00:10:03 00:13:54 43° 43° (NE) 00:17:44 437.485
ISS 20 Jan 00:10:12 00:13:28 79° 159° (SSE) 00:16:44 145.825
RS-15 20 Jan 00:12:06 00:23:57 73° 122° (ESE) 00:36:14 29.354- 29.394
DUCHIFAT 1 20 Jan 00:12:13 00:16:26 84° 104° (ESE) 00:20:39 145.980
50 SAT 20 Jan 00:15:08 00:18:12 26° 264° (W) 00:21:19 437.505
AIST 1 20 Jan 00:15:58 00:19:46 30° 71° (ENE) 00:23:31
NANOSAT C BR1 20 Jan 00:17:22 00:21:35 80° 284° (WNW) 00:25:48 145.865
ITUPSAT 1 20 Jan 00:19:42 00:22:24 15° 55° (NE) 00:25:05 437.325
PCSat 20 Jan 00:29:18 00:34:01 31° 112° (ESE) 00:38:44 145.827
TISAT 1 20 Jan 00:34:44 00:38:53 66° 72° (ENE) 00:43:02 437.305
Cosmos 2491 20 Jan 00:38:35 00:44:41 22° 75° (ENE) 00:50:47 435.465 / 435.565
DX 1 20 Jan 00:40:30 00:44:19 29° 264° (W) 00:48:09 434.975-435.025
UKube-1 20 Jan 00:40:50 00:44:51 37° 262° (W) 00:48:53 .
SPROUT 20 Jan 00:41:09 00:44:21 20° 268° (W) 00:47:34 437.525
BUGSAT 1 20 Jan 00:50:02 00:54:05 80° 104° (ESE) 00:58:08 437.445
BEESAT 2 20 Jan 00:53:04 00:57:02 51° 45° (NE) 01:00:59 435.950
BEESAT 20 Jan 00:53:13 00:57:13 27° 62° (ENE) 01:01:14 436.000
SWISSCUBE 20 Jan 00:54:34 00:58:43 31° 63° (ENE) 01:02:54 437.505
MOZHAYETS 4 20 Jan 00:58:41 00:59:46 11° 53° (NE) 01:00:50
AIST 2 20 Jan 01:06:58 01:08:22 11° 11° (NNE) 01:09:46 435.215
QB50P1 20 Jan 01:09:49 01:13:15 25° 296° (WNW) 01:16:41 145.935-145.965
Oscar 19 20 Jan 01:10:33 01:15:21 37° 97° (E) 01:20:06 437.125/150
M-CUBED/EXP-1 PRIME 20 Jan 01:12:17 01:13:24 11° 50° (NE) 01:14:29 437.505
POLYITAN 1 20 Jan 01:13:48 01:17:08 23° 297° (WNW) 01:20:29 437.675
QB50P2 20 Jan 01:15:08 01:18:20 21° 298° (WNW) 01:21:33 145.880/145.840
Gurwin Techsat 1B 20 Jan 01:18:54 01:23:18 26° 92° (E) 01:27:41 435.225
Cosmos 2504 20 Jan 01:25:28 01:32:47 49° 71° (ENE) 01:39:42 435.465 / 435.565
POPSAT HIP 1 20 Jan 01:37:26 01:39:53 15° 301° (WNW) 01:42:20 437.405
YUBILEINY 20 Jan 01:38:15 01:47:09 85° 263° (W) 01:55:56 435.215
KKS-1 20 Jan 01:44:01 01:44:45 10° 53° (NE) 01:45:29 437.445
ISS 20 Jan 01:46:51 01:50:04 57° 359° (N) 01:53:18 145.825
AUBIESAT-1 20 Jan 01:47:38 01:50:26 18° 56° (NE) 01:53:08 437.475
BEESAT 3 20 Jan 01:47:59 01:51:22 27° 242° (WSW) 01:54:44 437.485
JAS-2 20 Jan 01:48:19 01:52:38 18° 310° (NW) 01:57:13 435.910
DUCHIFAT 1 20 Jan 01:49:27 01:51:32 14° 303° (WNW) 01:53:36 145.980
AIST 1 20 Jan 01:53:36 01:57:20 30° 270° (W) 02:01:03
ITAMSAT 1 20 Jan 01:54:13 01:55:43 11° 85° (E) 01:57:12 435.822/435.867
ITUPSAT 1 20 Jan 01:54:46 01:59:33 88° 69° (ENE) 02:04:22 437.325
NANOSAT C BR1 20 Jan 01:55:12 01:56:36 11° 304° (NW) 01:57:59 145.865
PCSat 20 Jan 02:11:52 02:17:11 54° 313° (NW) 02:22:32 145.827
TISAT 1 20 Jan 02:12:40 02:14:58 14° 271° (W) 02:17:16 437.305
RS-15 20 Jan 02:25:30 02:37:19 53° 330° (NNW) 02:49:26 29.354- 29.394
BUGSAT 1 20 Jan 02:26:59 02:28:54 13° 302° (WNW) 02:30:50 437.445
BEESAT 20 Jan 02:30:15 02:34:48 44° 261° (W) 02:39:23 436.000
BEESAT 2 20 Jan 02:31:21 02:34:33 23° 244° (WSW) 02:37:44 435.950
MOZHAYETS 4 20 Jan 02:31:30 02:36:02 65° 72° (ENE) 02:40:37
Cosmos 2491 20 Jan 02:31:32 02:40:15 86° 96° (E) 02:49:02 435.465 / 435.565
SWISSCUBE 20 Jan 02:31:58 02:36:25 39° 262° (W) 02:40:55 437.505
STARS 20 Jan 02:37:00 02:39:35 16° 57° (ENE) 02:42:11 437.465
M-CUBED/EXP-1 PRIME 20 Jan 02:42:56 02:47:15 69° 68° (ENE) 02:51:16 437.505
AIST 2 20 Jan 02:44:39 02:48:15 26° 35° (NE) 02:51:51 435.215
Oscar 19 20 Jan 02:49:56 02:54:40 37° 296° (WNW) 02:59:21 437.125/150
CUSAT 1 20 Jan 02:55:55 03:00:59 45° 90° (E) 03:07:25 437.405
Gurwin Techsat 1B 20 Jan 02:58:23 03:03:34 54° 292° (WNW) 03:08:44 435.225
CUBESAT XI-V 20 Jan 03:15:51 03:20:03 33° 65° (ENE) 03:24:17 437.345
KKS-1 20 Jan 03:16:03 03:20:27 65° 72° (ENE) 03:24:53 437.445
Cosmos 2504 20 Jan 03:19:14 03:25:57 38° 275° (W) 03:32:24 435.465 / 435.565
AUBIESAT-1 20 Jan 03:20:19 03:24:32 62° 252° (WSW) 03:28:29 437.475
ISS 20 Jan 03:23:26 03:26:42 85° 197° (SSW) 03:29:57 145.825
ITAMSAT 1 20 Jan 03:30:53 03:36:06 73° 104° (ESE) 03:41:19 435.822/435.867
AO-7 20 Jan 03:31:07 03:39:13 50° 101° (E) 03:47:13 29.400- 29.500
ITUPSAT 1 20 Jan 03:35:50 03:38:03 13° 273° (W) 03:40:19 437.325
YUBILEINY 20 Jan 03:36:30 03:42:38 22° 285° (WNW) 03:48:44 435.215
DANDE 20 Jan 03:41:16 03:44:48 28° 85° (E) 03:49:17 436.750
PCSat 20 Jan 03:58:07 04:01:49 18° 336° (NNW) 04:05:31 145.827
MOZHAYETS 4 20 Jan 04:10:40 04:13:40 17° 271° (W) 04:16:41
STARS 20 Jan 04:11:01 04:15:24 77° 257° (WSW) 04:19:48 437.465
M-CUBED/EXP-1 PRIME 20 Jan 04:19:32 04:22:02 15° 263° (W) 04:24:28 437.505
AIST 2 20 Jan 04:22:51 04:27:04 62° 235° (SW) 04:31:15 435.215
GONETS M04 20 Jan 04:29:29 04:34:26 16° 46° (NE) 04:39:23
Cosmos 2491 20 Jan 04:31:16 04:38:19 27° 302° (WNW) 04:45:26 435.465 / 435.565
CUSAT 1 20 Jan 04:38:00 04:43:06 37° 297° (WNW) 04:49:30 437.405
Gurwin Techsat 1B 20 Jan 04:40:59 04:42:24 11° 312° (NW) 04:43:49 435.225
RS-15 20 Jan 04:41:49 04:53:12 40° 3° (N) 05:04:35 29.354- 29.394
STRAND 1 20 Jan 04:48:41 04:51:28 15° 53° (NE) 04:54:17 437.568
CUBESAT XI-V 20 Jan 04:53:06 04:57:23 35° 264° (W) 05:01:44 437.345
BRITE-PL 20 Jan 04:53:28 04:58:20 47° 97° (E) 05:02:48 437.365/2234.400
KKS-1 20 Jan 04:54:39 04:57:28 16° 270° (W) 05:00:17 437.445
ISS 20 Jan 05:00:19 05:02:52 21° 218° (SW) 05:05:24 145.825
GOMX 1 20 Jan 05:00:57 05:04:29 22° 91° (E) 05:07:51 467.674
ITAMSAT 1 20 Jan 05:11:16 05:15:04 21° 303° (WNW) 05:18:52 435.822/435.867
LilacSat-2 20 Jan 05:17:15 05:19:12 13° 89° (E) 05:21:11 437.200
Cubesat XI-IV 20 Jan 05:20:50 05:24:18 17° 88° (E) 05:27:45 437.490
DANDE 20 Jan 05:23:26 05:27:19 36° 295° (WNW) 05:32:25 436.750
AO-7 20 Jan 05:24:05 05:32:00 49° 302° (WNW) 05:39:54 29.400- 29.500
NOAA 15 20 Jan 05:31:24 05:35:30 22° 91° (E) 05:39:33 137.62
Cosmos 2499 20 Jan 05:40:03 05:46:35 34° 66° (ENE) 05:52:53 435.465 / 435.565
DOVE 4 20 Jan 05:42:46 05:46:06 22° 92° (E) 05:49:22 437.250
PCSat 20 Jan 05:45:17 05:47:30 12° 2° (N) 05:49:44 145.827
HORYU 2 20 Jan 05:48:46 05:53:14 70° 103° (ESE) 05:57:40 437.375
O/OREOS (USA 219) 20 Jan 06:13:08 06:17:12 35° 107° (ESE) 06:21:17 437.305
CUTE-I 20 Jan 06:16:39 06:21:50 49° 99° (E) 06:27:00 437.470
STRAND 1 20 Jan 06:24:47 06:29:52 80° 74° (ENE) 06:35:00 437.568
GONETS M04 20 Jan 06:25:00 06:33:41 56° 72° (ENE) 06:42:21
BRITE-PL 20 Jan 06:32:22 06:36:33 27° 299° (WNW) 06:40:28 437.365/2234.400
GOMX 1 20 Jan 06:38:32 06:42:53 44° 291° (WNW) 06:46:58 467.674
LilacSat-2 20 Jan 06:50:04 06:53:54 62° 287° (WNW) 06:57:44 437.200
RS-15 20 Jan 06:56:34 07:08:50 59° 35° (NE) 07:20:46 29.354- 29.394
Cubesat XI-IV 20 Jan 06:59:40 07:05:01 80° 287° (WNW) 07:10:22 437.490
NOAA 18 20 Jan 07:00:01 07:05:28 61° 103° (ESE) 07:10:51 137.9125
SO-50 20 Jan 07:03:38 07:05:57 14° 110° (ESE) 07:08:16 436.795
CUTE 1.7 + AOD 2 20 Jan 07:06:20 07:09:51 24° 93° (E) 07:13:19 437.475
PRISM 20 Jan 07:08:25 07:10:50 15° 58° (ENE) 07:13:15 437.425
NOAA 15 20 Jan 07:10:27 07:15:44 63° 290° (WNW) 07:20:57 137.62
CINEMA 3 20 Jan 07:14:23 07:18:24 46° 99° (E) 07:22:30 145.822/145.860
AO-7 20 Jan 07:18:07 07:22:53 17° 326° (NW) 07:27:39 29.400- 29.500
DOVE 4 20 Jan 07:20:02 07:24:02 40° 291° (WNW) 07:27:54 437.250
HORYU 2 20 Jan 07:26:23 07:29:18 17° 302° (WNW) 07:32:12 437.375
HO-68 20 Jan 07:27:49 07:34:38 44° 98° (E) 07:41:23 435.675
PCSat 20 Jan 07:29:03 07:33:06 21° 28° (NNE) 07:37:08 145.827
Cosmos 2499 20 Jan 07:33:05 07:40:04 54° 269° (W) 07:46:50 435.465 / 435.565
CANX-2 20 Jan 07:35:01 07:39:15 51° 99° (E) 07:43:26 2200.000
SEEDS 20 Jan 07:47:06 07:51:10 41° 98° (E) 07:55:11 437.485
O/OREOS (USA 219) 20 Jan 07:52:35 07:56:37 32° 307° (NW) 08:00:41 437.305
ANTELSAT 20 Jan 07:52:51 07:55:02 14° 57° (ENE) 07:57:13 437.575/2403.000
COMPASS 1 20 Jan 07:53:28 07:57:17 32° 96° (E) 08:01:05 437.405
CUTE-I 20 Jan 07:57:06 08:01:41 30° 299° (WNW) 08:06:16 437.470
Oscar 11 20 Jan 08:03:09 08:05:33 14° 88° (E) 08:07:57 145.826/435.025
AAUSAT CUBESAT 2 20 Jan 08:05:11 08:09:01 33° 96° (E) 08:12:48 437.432
STRAND 1 20 Jan 08:06:34 08:09:41 16° 272° (W) 08:12:50 437.568
CUBEBUG 2 20 Jan 08:11:50 08:16:00 47° 99° (E) 08:20:16 437.445
GONETS M04 20 Jan 08:22:16 08:30:16 40° 275° (W) 08:38:16
JAS-2 20 Jan 08:36:19 08:40:12 20° 52° (NE) 08:44:21 435.910
FUNcube-1 20 Jan 08:37:59 08:41:57 33° 96° (E) 08:45:58 145.935
SO-50 20 Jan 08:41:01 08:45:44 83° 128° (SE) 08:50:24 436.795
UWE-3 20 Jan 08:41:03 08:45:21 60° 101° (E) 08:49:44 435.000/436.395/437.385
Cubesat XI-IV 20 Jan 08:41:12 08:44:18 16° 307° (NW) 08:47:23 437.490
NOAA 18 20 Jan 08:41:20 08:45:45 26° 302° (WNW) 08:50:10 137.9125
PRISM 20 Jan 08:41:27 08:45:36 73° 256° (WSW) 08:49:48 437.425
CUTE 1.7 + AOD 2 20 Jan 08:41:47 08:45:50 41° 291° (WNW) 08:49:52 437.475
CINEMA 3 20 Jan 08:52:10 08:55:19 21° 297° (WNW) 08:58:31 145.822/145.860
NOAA 15 20 Jan 08:52:13 08:54:30 13° 310° (NW) 08:56:47 137.62
UNISAT 6 20 Jan 08:58:23 09:02:32 53° 71° (ENE) 09:06:43 437.425
ZACube-1 20 Jan 09:00:39 09:04:58 60° 101° (E) 09:09:22 437.345
RS-15 20 Jan 09:09:40 09:21:43 63° 242° (WSW) 09:33:23 29.354- 29.394
CANX-2 20 Jan 09:11:34 09:14:47 21° 298° (WNW) 09:17:59 2200.000
TIGRISAT 20 Jan 09:11:47 09:15:59 67° 73° (ENE) 09:20:14 435.000
PCSat 20 Jan 09:12:04 09:17:31 67° 51° (NE) 09:22:55 145.827
HO-68 20 Jan 09:15:38 09:22:26 47° 298° (WNW) 09:29:12 435.675
HUMSAT D 20 Jan 09:15:49 09:18:35 16° 90° (E) 09:21:19 437.325/437.525
SEEDS 20 Jan 09:23:12 09:26:40 24° 296° (WNW) 09:30:07 437.485
POPSAT HIP 1 20 Jan 09:23:48 09:25:44 13° 57° (ENE) 09:27:40 437.405
DELFI C3 20 Jan 09:25:33 09:29:12 32° 96° (E) 09:32:47 145.870
ANTELSAT 20 Jan 09:26:54 09:31:09 82° 255° (WSW) 09:35:27 437.575/2403.000
COMPASS 1 20 Jan 09:29:07 09:32:47 29° 294° (WNW) 09:36:26 437.405
DUCHIFAT 1 20 Jan 09:34:40 09:36:54 14° 58° (ENE) 09:39:10 145.980
Oscar 11 20 Jan 09:37:50 09:42:12 71° 286° (WNW) 09:46:32 145.826/435.025
NANOSAT C BR1 20 Jan 09:39:29 09:42:11 17° 60° (ENE) 09:44:54 145.865
AAUSAT CUBESAT 2 20 Jan 09:40:47 09:44:24 28° 294° (WNW) 09:48:00 437.432
CUBEBUG 2 20 Jan 09:49:03 09:52:24 22° 297° (WNW) 09:55:48 437.445
BUGSAT 1 20 Jan 10:11:02 10:12:50 13° 57° (ENE) 10:14:37 437.445
FUNcube-1 20 Jan 10:14:19 10:18:09 31° 294° (WNW) 10:22:02 145.935
UWE-3 20 Jan 10:18:26 10:21:26 19° 299° (WNW) 10:24:28 435.000/436.395/437.385
JAS-2 20 Jan 10:19:03 10:24:26 86° 254° (WSW) 10:30:30 435.910
SO-50 20 Jan 10:22:53 10:26:45 25° 329° (NNW) 10:30:33 436.795
QB50P1 20 Jan 10:29:55 10:34:00 51° 71° (ENE) 10:38:05 145.935-145.965
POLYITAN 1 20 Jan 10:33:57 10:38:03 57° 71° (ENE) 10:42:11 437.675
QB50P2 20 Jan 10:35:08 10:39:17 62° 73° (ENE) 10:43:28 145.880/145.840
UNISAT 6 20 Jan 10:36:39 10:39:36 18° 269° (W) 10:42:34 437.425
ZACube-1 20 Jan 10:37:50 10:40:53 19° 299° (WNW) 10:43:58 437.345
Cosmos 2491 20 Jan 10:40:56 10:45:46 15° 46° (NE) 10:50:36 435.465 / 435.565
HUMSAT D 20 Jan 10:50:20 10:54:33 60° 288° (WNW) 10:58:47 437.325/437.525
TIGRISAT 20 Jan 10:50:50 10:53:10 14° 271° (W) 10:55:31 435.000
Oscar 19 20 Jan 10:55:07 10:58:08 16° 54° (NE) 11:01:09 437.125/150
